Regional Weather Roundup
Issued by NWS Upton, NY

Current Version | Previous Version | Graphics & Text | Print | Product List | Glossary Off
Versions: 1 2 3 4 5 6 7 8 9 10 11 12 13 14 15 16 17 18 19 20 21 22 23 24 25 26 27 28 29 30 31 32 33 34 35 36 37 38 39 40 41 42 43 44 45 46 47 48 49 50

000
ASUS41 KOKX 300008
RWROKX

REGIONAL WEATHER ROUNDUP
NATIONAL WEATHER SERVICE NEW YORK NY
800 PM EDT SAT APR 29 2017

NOTE: "FAIR" INDICATES FEW OR NO CLOUDS BELOW 12,000 FEET WITH NO
SIGNIFICANT WEATHER AND/OR OBSTRUCTIONS TO VISIBILITY.

NYZ071-072-176-178-NJZ106-104-300100-
NEW YORK CITY METRO AREA

CITY           SKY/WX    TMP DP  RH WIND       PRES   REMARKS
Central Park   PTCLDY    79  57  46 W9G22     30.03R
Wall St Helipt PTCLDY    77  57  50 W6        30.01R
Bronx Bot Gard   N/A     79  55  44 W7        30.01R
LaGuardia APRT MOCLDY    81  56  42 W13G21    29.99R
Kennedy INTL   MOCLDY    80  59  48 W15       30.01R
Breezy Point     N/A     70 N/A N/A W9          N/A
Newark/Liberty MOCLDY    79  58  48 W14       30.00R
Teterboro      PTCLDY    78  58  49 W6        29.99R
$$

NYZ177-179-078>081-300100-
LONG ISLAND NEW YORK

CITY           SKY/WX    TMP DP  RH WIND       PRES   REMARKS
Jones Beach      N/A     75 N/A N/A W9          N/A
Matinecock PT    N/A     73 N/A N/A W18         N/A
Farmingdale    CLEAR     79  57  46 NW8       30.00R
MacArthur/ISP  MOCLDY    77  59  53 W8        29.98R
Shirley        NOT AVBL
Mt Sinai Harb    N/A     63 N/A N/A W3          N/A
Westhampton    PTCLDY    78  55  44 NW12      29.99R
East Hampton     N/A     76  56  49 W8        29.96R
Montauk        NOT AVBL
$$

NYZ052-065-067-300100-
HUDSON VALLEY

CITY           SKY/WX    TMP DP  RH WIND       PRES   REMARKS
White Plains   PTCLDY    75  56  51 NW15      30.01R
Larchmont Harb   N/A     79 N/A N/A W15G21      N/A
Croton O-T Hud   N/A     73 N/A N/A NW13        N/A
Newburgh       PTCLDY    72  59  64 NW17      30.05R
Montgomery     PTCLDY    71  54  54 NW20G32   30.05R
Poughkeepsie   CLOUDY    71  54  54 N8        30.03R
Albany         CLOUDY    61  41  47 W14G21    30.08R
$$

NJZ001-105-106-008-010-013-015-019>022-104-300100-
NEW JERSEY

CITY           SKY/WX    TMP DP  RH WIND       PRES   REMARKS
Newark/Liberty MOCLDY    79  58  48 W14       30.00R
Teterboro      PTCLDY    78  58  49 W6        29.99R
Caldwell       PTCLDY    78  57  48 W7        30.02R
Somerville     PTCLDY    77  61  57 CALM      30.00R
Linden           N/A     78  57  47 W10G17    30.01R
Perth Amboy      N/A     79 N/A N/A W8          N/A
Sussex         PTCLDY    73  57  57 VRB5      30.06R
Andover          N/A     73  57  57 VRB5      30.05R
Trenton        PTCLDY    79  62  56 CALM      30.02R
Millville      CLOUDY    76  67  73 CALM      30.04R
Atlantic City  PTCLDY    79  59  50 W6        30.03R
Wrightstown    CLEAR     78  61  55 W5        30.01R
Toms River     CLEAR     78  62  57 W6        30.04R
Belmar         PTCLDY    78  60  53 W6        30.04R
$$

PAZ047>061-062-071-300100-
EASTERN PENNSYLVANIA

CITY           SKY/WX    TMP DP  RH WIND       PRES   REMARKS
Philadelphia   CLOUDY    83  60  45 W6        30.04R
Allentown      PTCLDY    76  60  57 N3        30.03R
Scranton       CLOUDY    65  56  72 N6        30.11R
$$

CTZ002-004>006-009-010-012-RIZ004-006-007-MAZ004-011-015-300100-
SOUTHERN NEW ENGLAND
 IN CT

CITY           SKY/WX    TMP DP  RH WIND       PRES   REMARKS
Bradley INTL   PTCLDY    69  51  52 NW13      30.01R
Hartford       PTCLDY    71  54  54 NW9       29.99R
Danbury        CLEAR     74  55  51 NW13G24   30.02R
Wtrbury/Oxford PTCLDY    70  52  52 N12       30.02R
Bridgeport     CLEAR     79  57  46 W14       29.97R
Meriden        CLEAR     74  55  51 N8        29.99R
New Haven      PTCLDY    77  55  46 NW8       29.97R
Chester          N/A     73  55  53 NW9G18    29.99R
Groton         CLEAR     77  55  46 N14G21    29.94R
Wilimantic     CLEAR     73  54  51 NW13G21   29.99R

 IN RI

CITY           SKY/WX    TMP DP  RH WIND       PRES   REMARKS
Providence     PTCLDY    75  55  49 NW16G24   29.96R
Block Island   CLEAR     57  52  83 SW15      29.96R
Westerly       CLEAR     78  56  46 NW10G17   29.95R
 IN MA

CITY           SKY/WX    TMP DP  RH WIND       PRES   REMARKS
Boston         MOCLDY    75  50  41 NW15G23   29.90R
Worcester      CLEAR     65  45  48 W21G36    29.98R
Westfield      MOCLDY    66  49  54 W10G20    30.01R
Provincetown   PTCLDY    65  52  62 W20       29.90R
Nantucket      CLEAR     57  53  86 W16       29.93R
$$

ANZ330-335-338-340-345-350-353-355-300100-
COASTAL MARINE OBSERVATIONS


STATION/POSITION TIME  SKY/WX   TEMP    WIND        PRES    VSBY  WAVE
                                AIR SEA DIR/SP/G                  HT/PER
                 (UTC)          (F)     (DEG/KT/KT) (MB)    (MI)  (FT/S)
NY HARB ENTRANCE 2250            66 54  290/ 12/ 12 1015.6          3/ 7
20 S FIRE ISLAND 2350            57 50  240/  8/  8 1015.8          4/ 7
GREAT SOUTH BAY  2330            69 61  280/  6/  8   N/A
23 SSW MONTAUK P 2250            53 48              1014.9          4/ 6
15 E BARNEGAT LI 2330               56                N/A           4/ 7
HUDSON CANYON    2250            54 50  220/ 10/ 12 1016.8          4/ 7
KINGS POINT      2330            72 55  340/ 12/ 15 1015.4
EXECUTION ROCKS  NOT AVBL
CENTRAL LI SOUND 2315            59     260/ 10/ 14   N/A           2/ 3
EASTERN LI SOUND NOT AVBL
ROBBINS REEF     2330            80     280/ 14/ 17 1016.1
$$


>>>>>>>>>>>>>>>>>>>>>>>>>>>> KEY <<<<<<<<<<<<<<<<<<<<<<<<<<<
>                                                          <
>     SKY/WX - Sky Condition/Present Weather               <
>     TMP    - Temperature in Fahrenheit                   <
>     DP     - Dew Point in Fahrenheit                     <
>     RH     - Relative Humidity in Percent                <
>     WIND   - Direction (from) and Speed in MPH           <
>     PRES   - Mean Sea Level Pressure (inches of Hg)      <
>     WCI    - Wind Chill Index                            <
>     VSB    - VISIBILITY IN MILES                         <
>     HX     - HEAT INDEX                                  <
>     TC     - TEMPERATURE IN CELSIUS                      <
>     VRB    - VARIABLE WIND DIRECTION                     <
>                                                          <
>>>>>>>>>>>>>>>>>>>>>>>>>>>> KEY <<<<<<<<<<<<<<<<<<<<<<<<<<<



USA.gov is the U.S. government's official web portal to all federal, state and local government web resources and services.